• Join FlightAware (Why Join?)
  • Login
  • US Flag 
05:32AM EDT


 

Airport Tracker/Info


-or-


 

Live Flight TrackerFlight Track Log ✈ UAL1519 ✈ 17-Apr-2013 ✈ KEWR - KMCO

Flight Track Log - Related Links

Times and Time Zones

All times are in EDT time to prevent confusion due to time zone crossing. See the UAL1519 flight status page for this flight to view local times or setup timezone preferences in your user account.

Time Position Orientation Groundspeed Altitude Reporting Facility
EDT Latitude Longitude Course Direction KTS MPH feet Rate Location/Type
04:18PM 40.7299 -74.1290 40° Northeast 191 220 2,000  Level FlightAware ADS-B
04:18PM 40.7336 -74.1268 24° Northeast 193 222 2,200 2,160 Climbing FlightAware ADS-B
04:18PM 40.7396 -74.1250 13° North 200 230 2,400 1,800 Climbing FlightAware ADS-B
04:18PM 40.7427 -74.1249 North 202 232 2,500 1,680 Climbing FlightAware ADS-B
04:18PM 40.7464 -74.1254 354° North 207 238 2,600 2,220 Climbing FlightAware ADS-B
04:18PM 40.7500 -74.1268 344° North 211 243 2,800 3,000 Climbing FlightAware ADS-B
04:19PM 40.7537 -74.1287 339° North 212 244 3,000 2,400 Climbing FlightAware ADS-B
04:19PM 40.7680 -74.1371 336° Northwest 226 260 3,600 2,220 Climbing FlightAware ADS-B
04:19PM 40.7840 -74.1462 337° Northwest 241 277 4,200 2,640 Climbing FlightAware ADS-B
04:19PM 40.7976 -74.1536 338° Northwest 246 283 4,900 3,480 Climbing FlightAware ADS-B
04:19PM 40.8094 -74.1600 338° Northwest 245 282 5,600 4,080 Climbing FlightAware ADS-B
04:20PM 40.8150 -74.1639 332° Northwest 243 280 6,000 4,200 Climbing FlightAware ADS-B
04:20PM 40.8194 -74.1681 324° Northwest 240 276 6,300 3,960 Climbing FlightAware ADS-B
04:20PM 40.8222 -74.1718 315° West 239 275 6,600 3,600 Climbing FlightAware ADS-B
04:20PM 40.8262 -74.1790 306° West 240 276 6,900 2,460 Climbing FlightAware ADS-B
04:20PM 40.8291 -74.1870 296° West 244 281 7,100 1,620 Climbing FlightAware ADS-B
04:20PM 40.8305 -74.1940 285° West 245 282 7,200 1,500 Climbing FlightAware ADS-B
04:20PM 40.8310 -74.1987 278° West 246 283 7,300 1,980 Climbing FlightAware ADS-B
04:20PM 40.8308 -74.2078 268° West 246 283 7,500 1,800 Climbing FlightAware ADS-B
04:20PM 40.8299 -74.2141 259° West 247 284 7,600 960 Climbing FlightAware ADS-B
04:20PM 40.8275 -74.2253 254° West 252 290 7,700 600 Climbing FlightAware ADS-B
04:20PM 40.8268 -74.2284 253° West 252 290 7,700 360 Level FlightAware ADS-B
04:21PM 40.8220 -74.2494 253° West 258 297 7,800 360 Climbing FlightAware ADS-B
04:21PM 40.8213 -74.2523 252° West 259 298 7,800 1,080 Level FlightAware ADS-B
04:21PM 40.8164 -74.2733 253° West 263 303 8,100 1,620 Climbing FlightAware ADS-B
04:21PM 40.8133 -74.2866 253° West 262 302 8,400 2,760 Climbing FlightAware ADS-B
04:21PM 40.8110 -74.2968 253° West 264 304 8,800 3,300 Climbing FlightAware ADS-B
04:21PM 40.8072 -74.3138 254° West 264 304 9,400 3,360 Climbing FlightAware ADS-B
04:21PM 40.8054 -74.3210 252° West 262 302 9,700 3,000 Climbing FlightAware ADS-B
04:21PM 40.8038 -74.3259 247° West 262 302 9,800 2,640 Climbing FlightAware ADS-B
04:22PM 40.7998 -74.3347 239° Southwest 267 307 10,100 3,120 Climbing FlightAware ADS-B
04:22PM 40.7915 -74.3478 230° Southwest 272 313 10,700 2,220 Climbing FlightAware ADS-B
04:22PM 40.7779 -74.3705 232° Southwest 290 334 11,100 1,320 Climbing FlightAware ADS-B
04:23PM 40.7505 -74.4183 233° Southwest 324 373 11,800 1,560 Climbing FlightAware ADS-B
04:23PM 40.7443 -74.4288 232° Southwest 329 379 12,100 2,220 Climbing FlightAware ADS-B
04:23PM 40.7196 -74.4708 232° Southwest 343 395 13,000 2,160 Climbing FlightAware ADS-B
04:24PM 40.6881 -74.5237 232° Southwest 358 412 14,200 2,580 Climbing FlightAware ADS-B
04:24PM 40.6547 -74.5796 232° Southwest 361 415 15,800 2,820 Climbing FlightAware ADS-B
04:25PM 40.6233 -74.6323 232° Southwest 363 418 17,200 2,340 Climbing FlightAware ADS-B
04:25PM 40.5864 -74.6944 232° Southwest 375 432 18,400 1,860 Climbing FlightAware ADS-B
04:26PM 40.5522 -74.7516 232° Southwest 389 448 19,300 1,860 Climbing FlightAware ADS-B
04:26PM 40.5182 -74.8084 232° Southwest 398 458 20,300 2,160 Climbing FlightAware ADS-B
04:27PM 40.4835 -74.8663 232° Southwest 401 461 21,500 2,220 Climbing FlightAware ADS-B
04:27PM 40.4487 -74.9243 232° Southwest 405 466 22,600 1,980 Climbing FlightAware ADS-B
04:28PM 40.4178 -74.9748 231° Southwest 410 472 23,400 1,500 Climbing FlightAware ADS-B
04:28PM 40.3785 -75.0305 227° Southwest 419 482 24,000 600 Climbing FlightAware ADS-B
04:29PM 40.3371 -75.0887 227° Southwest 437 503 24,000  Level FlightAware ADS-B
04:29PM 40.2932 -75.1500 227° Southwest 444 511 24,000 240 Level FlightAware ADS-B
04:30PM 40.2507 -75.2091 227° Southwest 444 511 24,300 1,560 Climbing FlightAware ADS-B
04:30PM 40.2078 -75.2690 227° Southwest 437 503 25,600 2,280 Climbing FlightAware ADS-B
04:31PM 40.1652 -75.3284 227° Southwest 432 497 26,700 1,320 Climbing FlightAware ADS-B
04:31PM 40.1229 -75.3874 227° Southwest 447 514 27,000 660 Climbing FlightAware ADS-B
04:32PM 40.0751 -75.4537 227° Southwest 460 529 27,400 780 Climbing FlightAware ADS-B
04:32PM 40.0277 -75.5193 227° Southwest 467 537 27,900 1,320 Climbing FlightAware ADS-B
04:33PM 39.9834 -75.5803 227° Southwest 457 526 28,800 1,980 Climbing FlightAware ADS-B
04:33PM 39.9406 -75.6393 227° Southwest 447 514 29,900 2,160 Climbing FlightAware ADS-B
04:34PM 39.9175 -75.6717 227° Southwest 443 510 30,500 1,980 Climbing FlightAware ADS-B
04:34PM 39.8710 -75.7458 231° Southwest 432 497 31,700 1,860 Climbing FlightAware ADS-B
04:35PM 39.8336 -75.8056 231° Southwest 423 487 32,600 1,800 Climbing FlightAware ADS-B
04:35PM 39.7951 -75.8676 231° Southwest 414 476 33,600 1,740 Climbing FlightAware ADS-B
04:36PM 39.7519 -75.9370 231° Southwest 406 467 34,600 1,560 Climbing FlightAware ADS-B
04:36PM 39.7158 -75.9943 231° Southwest 405 466 35,400 1,200 Climbing FlightAware ADS-B
04:37PM 39.6790 -76.0521 230° Southwest 397 457 35,900 540 Climbing FlightAware ADS-B
04:37PM 39.6384 -76.1163 231° Southwest 404 465 36,000 60 Climbing FlightAware ADS-B
04:38PM 39.5888 -76.1942 230° Southwest 405 466 36,000  Level FlightAware ADS-B
04:39PM 39.5221 -76.2965 230° Southwest 402 463 36,000  Level FlightAware ADS-B
04:40PM 39.4797 -76.3616 230° Southwest 400 460 36,000  Level FlightAware ADS-B
04:40PM 39.4412 -76.4213 230° Southwest 399 459 36,000  Level FlightAware ADS-B
04:41PM 39.3890 -76.5041 231° Southwest 397 457 36,000  Level FlightAware ADS-B
04:42PM 39.3527 -76.5612 231° Southwest 397 457 36,000  Level FlightAware ADS-B
04:42PM 39.3151 -76.6202 231° Southwest 396 456 36,000  Level FlightAware ADS-B
04:43PM 39.2750 -76.6828 230° Southwest 398 458 36,000  Level FlightAware ADS-B
04:43PM 39.2284 -76.7556 230° Southwest 398 458 36,000  Level FlightAware ADS-B
04:44PM 39.1926 -76.8114 230° Southwest 398 458 36,000  Level FlightAware ADS-B
04:44PM 39.1573 -76.8664 230° Southwest 397 457 36,000  Level FlightAware ADS-B
04:45PM 39.1215 -76.9219 230° Southwest 398 458 36,000  Level FlightAware ADS-B
04:45PM 39.0846 -76.9792 230° Southwest 399 459 36,000  Level FlightAware ADS-B
04:46PM 39.0453 -77.0363 228° Southwest 404 465 36,000  Level FlightAware ADS-B
04:47PM 38.9695 -77.1207 221° Southwest 411 473 36,000  Level FlightAware ADS-B
04:47PM 38.9182 -77.1770 221° Southwest 413 475 36,000  Level FlightAware ADS-B
04:48PM 38.8528 -77.2486 220° Southwest 415 478 36,000  Level FlightAware ADS-B
04:49PM 38.7980 -77.3087 221° Southwest 418 481 36,000  Level FlightAware ADS-B
04:49PM 38.7530 -77.3577 220° Southwest 418 481 36,000  Level FlightAware ADS-B
04:50PM 38.6964 -77.4193 220° Southwest 420 483 36,000  Level FlightAware ADS-B
04:51PM 38.6400 -77.4810 221° Southwest 417 480 36,000  Level FlightAware
04:51PM 38.5850 -77.5410 220° Southwest 417 480 36,000  Level FlightAware
04:52PM 38.5540 -77.5750 221° Southwest 416 479 36,000  Level FlightAware
04:53PM 38.4630 -77.6720 220° Southwest 415 478 36,000  Level FlightAware
04:53PM 38.4030 -77.7370 220° Southwest 415 478 36,000  Level FlightAware
04:54PM 38.3510 -77.7930 220° Southwest 415 478 36,000  Level FlightAware
04:55PM 38.2900 -77.8580 220° Southwest 415 478 36,000  Level FlightAware
04:55PM 38.2160 -77.9380 220° Southwest 414 476 36,000  Level FlightAware
04:56PM 38.1680 -77.9880 219° Southwest 414 476 36,000  Level FlightAware
04:57PM 38.0970 -78.0640 220° Southwest 415 478 36,000  Level FlightAware
04:58PM 38.0360 -78.1300 220° Southwest 415 478 36,000  Level FlightAware
04:58PM 37.9710 -78.1940 218° Southwest 418 481 36,000  Level FlightAware
04:59PM 37.9200 -78.2430 217° Southwest 418 481 36,000  Level FlightAware
05:00PM 37.8450 -78.3140 217° Southwest 422 486 36,000  Level FlightAware
05:01PM 37.7380 -78.4160 217° Southwest 409 471 36,000  Level FlightAware
05:01PM 37.6870 -78.4640 217° Southwest 422 486 36,000  Level FlightAware
05:02PM 37.6340 -78.5150 217° Southwest 422 486 36,000  Level FlightAware
05:03PM 37.5810 -78.5650 217° Southwest 422 486 36,000  Level FlightAware
05:03PM 37.5280 -78.6150 217° Southwest 422 486 36,000  Level FlightAware
05:04PM 37.4750 -78.6660 217° Southwest 422 486 36,000  Level FlightAware
05:05PM 37.4090 -78.7290 217° Southwest 422 486 36,000  Level FlightAware
05:05PM 37.3560 -78.7790 217° Southwest 422 486 36,000  Level FlightAware
05:06PM 37.3030 -78.8290 217° Southwest 422 486 36,000  Level FlightAware
05:07PM 37.2500 -78.8790 217° Southwest 422 486 36,000  Level FlightAware
05:08PM 37.1830 -78.9420 217° Southwest 422 486 36,000  Level FlightAware
05:08PM 37.1300 -78.9920 217° Southwest 422 486 36,000  Level FlightAware
05:09PM 37.0770 -79.0420 217° Southwest 422 486 36,000  Level FlightAware
05:10PM 37.0240 -79.0920 217° Southwest 422 486 36,000  Level FlightAware
05:10PM 36.9710 -79.1420 217° Southwest 422 486 36,000  Level FlightAware
05:11PM 36.6875 -79.2208 217° Southwest 422 486 36,000  Level Washington Center
05:12PM 36.5936 -79.2836 208° Southwest 427 491 36,000  Level Washington Center
05:13PM 36.4892 -79.3536 208° Southwest 427 491 36,000  Level Washington Center
05:14PM 36.3847 -79.4208 207° Southwest 427 491 36,000  Level Washington Center
05:16PM 36.2033 -79.5436 209° Southwest 433 498 36,000  Level Atlanta Center
05:17PM 36.0972 -79.6111 207° Southwest 433 498 36,000  Level Atlanta Center
05:18PM 35.9914 -79.6836 209° Southwest 433 498 36,000  Level Atlanta Center
05:19PM 35.8997 -79.7450 208° Southwest 433 498 36,000  Level Atlanta Center
05:20PM 35.7956 -79.8092 207° Southwest 427 491 36,000  Level Atlanta Center
05:21PM 35.6894 -79.8814 209° Southwest 427 491 36,000  Level Atlanta Center
05:22PM 35.5878 -79.9528 210° Southwest 427 491 36,000  Level Atlanta Center
05:23PM 35.4856 -80.0192 208° Southwest 427 491 36,000  Level Atlanta Center
05:24PM 35.3833 -80.0828 207° Southwest 427 491 36,000  Level Atlanta Center
05:25PM 35.2792 -80.1514 208° Southwest 427 491 36,000  Level Atlanta Center
05:31PM 34.7050 -80.5210 208° Southwest 430 495 36,000  Level FlightAware
05:32PM 34.6360 -80.5650 208° Southwest 430 495 36,000  Level FlightAware
05:32PM 34.6510 -80.5550 29° Northeast 431 496 36,000  Level FlightAware
05:33PM 34.5910 -80.5940 208° Southwest 431 496 36,000  Level FlightAware
05:34PM 34.3390 -80.7330 204° Southwest 437 503 36,000  Level FlightAware
05:34PM 34.2490 -80.7480 188° South 441 507 36,000  Level FlightAware
05:35PM 34.1570 -80.7610 187° South 439 505 36,000  Level FlightAware
05:36PM 34.0530 -80.7760 187° South 437 503 36,000  Level FlightAware
05:37PM 33.9570 -80.7910 187° South 434 499 36,000  Level FlightAware
05:37PM 33.8810 -80.8020 187° South 432 497 36,000  Level FlightAware
05:38PM 33.7980 -80.8150 187° South 431 496 36,000  Level FlightAware
05:39PM 33.7090 -80.8280 187° South 430 495 36,000  Level FlightAware
05:40PM 33.6320 -80.8400 187° South 428 493 36,000  Level FlightAware
05:40PM 33.5420 -80.8530 187° South 427 491 36,000  Level FlightAware
05:41PM 33.4660 -80.8640 187° South 427 491 36,000  Level FlightAware
05:42PM 33.3750 -80.8780 187° South 431 496 36,000  Level FlightAware
05:42PM 33.2950 -80.8900 187° South 434 499 36,000  Level FlightAware
05:43PM 33.2180 -80.9010 187° South 434 499 36,000  Level FlightAware
05:44PM 33.1270 -80.9150 187° South 434 499 36,000  Level FlightAware
05:44PM 33.0520 -80.9260 187° South 434 499 36,000  Level FlightAware
05:45PM 32.9570 -80.9390 187° South 434 499 36,000  Level FlightAware
05:46PM 32.8780 -80.9510 187° South 435 501 36,000  Level FlightAware
05:47PM 32.7990 -80.9630 187° South 437 503 36,000  Level FlightAware
05:47PM 32.7070 -80.9760 187° South 436 502 36,000  Level FlightAware
05:48PM 32.6270 -80.9880 187° South 436 502 36,000  Level FlightAware
05:49PM 32.5400 -81.0000 187° South 434 499 36,000  Level FlightAware
05:50PM 32.4430 -81.0150 187° South 434 499 36,000  Level FlightAware
05:50PM 32.3750 -81.0270 188° South 434 499 36,000  Level FlightAware
05:51PM 32.2850 -81.0370 185° South 431 496 36,000  Level FlightAware
05:52PM 32.1630 -81.0550 187° South 429 494 36,000  Level FlightAware
05:53PM 32.0720 -81.0680 187° South 429 494 36,000  Level FlightAware
05:53PM 32.0050 -81.0770 186° South 428 493 36,000  Level FlightAware
05:54PM 31.9190 -81.0810 182° South 436 502 36,000  Level FlightAware
05:55PM 31.8340 -81.0820 181° South 436 502 36,000  Level FlightAware
05:56PM 31.7050 -81.0830 180° South 435 501 36,000  Level FlightAware
05:57PM 31.5940 -81.0850 181° South 434 499 36,000  Level FlightAware
05:57PM 31.5320 -81.0850 180° South 434 499 36,000  Level FlightAware
05:58PM 31.4640 -81.0850 180° South 434 499 36,000  Level FlightAware
05:59PM 31.3790 -81.0850 180° South 434 499 36,000  Level FlightAware
05:59PM 31.3100 -81.0850 180° South 434 499 36,000  Level FlightAware
06:00PM 31.2420 -81.0850 180° South 434 499 36,000  Level FlightAware
06:01PM 31.1740 -81.0850 180° South 434 499 36,000  Level FlightAware
06:02PM 31.0890 -81.0850 180° South 434 499 36,000  Level FlightAware
06:02PM 31.0200 -81.0850 180° South 434 499 36,000  Level FlightAware
06:03PM 30.9520 -81.0850 180° South 434 499 36,000  Level FlightAware
06:04PM 30.8840 -81.0850 180° South 434 499 36,000  Level FlightAware
06:04PM 30.7980 -81.0850 180° South 434 499 36,000  Level FlightAware
06:05PM 30.7300 -81.0850 180° South 434 499 36,000  Level FlightAware
06:06PM 30.6620 -81.0850 180° South 434 499 36,000  Level FlightAware
06:06PM 30.5940 -81.0850 180° South 434 499 36,000 -1,320 Level FlightAware
06:07PM 30.2978 -81.1028 180° South 439 505 34,000 -1,140 Descending Jacksonville Center
06:08PM 30.1725 -81.1025 180° South 439 505 34,000 -240 Level Jacksonville Center
06:09PM 30.0494 -81.1072 182° South 444 511 33,600 -1,620 Descending Jacksonville Center
06:10PM 29.9261 -81.1072 180° South 444 511 30,800 -2,940 Descending Jacksonville Center
06:11PM 29.7989 -81.1094 181° South 444 511 27,800 -2,760 Descending Jacksonville Center
06:12PM 29.6758 -81.1117 181° South 444 511 25,300 -2,400 Descending Jacksonville Center
06:13PM 29.5547 -81.1117 180° South 444 511 23,000 -1,980 Descending Jacksonville Center
06:19PM 28.9200 -81.0770 180° South 354 407 11,800 -1,920 Descending FlightAware
06:20PM 28.8870 -81.0890 198° South 359 413 11,200 -1,200 Descending FlightAware
06:21PM 28.7650 -81.1120 189° South 342 394 9,900 -660 Descending FlightAware
06:23PM 28.5560 -81.1540 190° South 278 320 8,800 -480 Descending FlightAware
06:26PM 28.3870 -81.1870 190° South 225 259 7,600 -60 Descending FlightAware
06:26PM 28.4540 -81.1750 North 251 289 8,700 -2,040 Climbing FlightAware
06:28PM 28.2560 -81.2620 201° Southwest 234 269 2,800 -1,860 Descending FlightAware
06:30PM 28.3550 -81.3210 332° Northwest 159 183 1,100 -780 Descending FlightAware
06:32PM 28.4030 -81.3220 359° North 134 154 200 -780 Descending FlightAware